{"data":{"norad_id":68347,"epoch":"2026-05-24T22:24:48.237696Z","epoch_age_seconds":70999,"freshness":"FRESH","line1":"1 68347U 26059AC  26144.93389164  .00019545  00000+0  67018-3 0  9998","line2":"2 68347  53.1576 353.7795 0001096  92.3007 267.8120 15.30204820  9856","mean_motion":15.3020482,"eccentricity":0.0001096,"inclination_deg":53.1576,"raan_deg":353.7795,"arg_perigee_deg":92.3007,"mean_anomaly_deg":267.812,"bstar":0.00067018,"rev_number":985,"period_min":94.105049283533,"perigee_km":474.44955199642,"apogee_km":475.9518036154,"semimajor_km":6853.3376778059,"source":"CELESTRAK","updated_at":"2026-05-25T13:38:21.927148Z"}}